This is the latest recevied weather packets stored in our database for station/object EA1AHA-13. If no packets are shown the sender has not sent any weather packets the latest 10 day(s).
| Time | Temp. | Humidity | Pressure | Rain* | Wind** | Luminosity | Snow |
|---|---|---|---|---|---|---|---|
| 1777803389 | 13.89° C | 90% | 1011.9 hPa | 0 mm | - | - | - |
| 1777802765 | 14.44° C | 90% | 1011.7 hPa | 0 mm | - | - | - |
| 1777802190 | 14.44° C | 88% | 1011.6 hPa | 0 mm | - | - | - |
| 1777801565 | 15° C | 85% | 1011.7 hPa | 0 mm | - | - | - |
| 1777800989 | 15° C | 84% | 1011.7 hPa | 0 mm | - | - | - |
| 1777800365 | 15.56° C | 83% | 1011.7 hPa | 0 mm | - | - | - |
| 1777799789 | 15.56° C | 83% | 1011.5 hPa | 0 mm | - | - | - |
| 1777799165 | 15.56° C | 82% | 1011.6 hPa | 0 mm | - | - | - |
| 1777798590 | 15.56° C | 83% | 1011.4 hPa | 0 mm | - | - | - |
| 1777797965 | 15° C | 84% | 1011.5 hPa | 0 mm | - | - | - |
| 1777797389 | 15° C | 83% | 1011.5 hPa | 0 mm | - | - | - |
| 1777796765 | 15.56° C | 83% | 1011.4 hPa | 0 mm | - | - | - |
| 1777796189 | 15° C | 84% | 1011.4 hPa | 0 mm | - | - | - |
| 1777795565 | 15.56° C | 89% | 1011.3 hPa | 0 mm | - | - | - |
| 1777794989 | 14.44° C | 92% | 1011.3 hPa | 0 mm | - | - | - |
| 1777794365 | 13.89° C | 94% | 1011.5 hPa | 0 mm | - | - | - |
| 1777793789 | 13.89° C | 96% | 1011.3 hPa | 0 mm | - | - | - |
| 1777793165 | 13.33° C | 97% | 1011.1 hPa | 0 mm | - | - | - |
| 1777792589 | 13.33° C | 97% | 1011.4 hPa | 0 mm | - | - | - |
| 1777791965 | 13.33° C | 98% | 1011.4 hPa | 0 mm | - | - | - |
| 1777791389 | 12.78° C | 98% | 1011.2 hPa | 0 mm | - | - | - |
| 1777790765 | 12.78° C | 98% | 1011 hPa | 0 mm | - | - | - |
| 1777790190 | 12.78° C | 98% | 1011.2 hPa | 0 mm | - | - | - |
| 1777789565 | 12.78° C | 98% | 1010.9 hPa | 0 mm | - | - | - |
| 1777788989 | 12.78° C | 98% | 1010.9 hPa | 0 mm | - | - | - |
* Rain latest hour (hover to see other rain measurements)
** Current wind speed in m/s (hover to see current wind gust speed)